Home > Weather > Naples > Past weeks

Flag for Italy Weather for the Past 2 Weeks in Naples, Italy

Now
59 °F

Passing clouds.


Feels Like: 58 °F
Forecast: 56 / 62 °F
Wind: 8 mph from Southwest

Location: Naples / Capodichino

Current Time: Feb 13, 2016 at 9:22:51 PM

Latest Report: Feb 13, 2016 at 8:50 PM


Visibility: N/A

Pressure: 29.62 "Hg

Humidity: 77%

Dew point: 52 °F

Location of NaplesLocation

Historic Weather in Naples — Graph

°F

Naples Temperature Yesterday

Maximum temperature yesterday: 59 °F (at 2:20 PM)
Minimum temperature yesterday: 43 °F (at 12:50 AM)
Average temperature yesterday: 52 °F

High & Low Weather Summary for the Past Weeks

 TemperatureHumidityPressure
High64 °F (Feb 1, 12:50 PM)100% (Feb 2, 12:20 AM)30.54 "Hg (Feb 2, 12:20 AM)
Low36 °F (Feb 5, 5:20 AM)20% (Feb 5, 1:20 PM)29.50 "Hg (Feb 13, 5:50 AM)
Average54 °F71%30.11 "Hg
* Reported Jan 29 7:20 PM — Feb 13 7:50 PM, Naples, Weather by CustomWeather, © 2016

Note: Actual official high and low records may vary slightly from our data, if they occured in-between our weather recording intervals... More about our weather records

Advertising

Naples Weather History for the Previous 24 Hours

 ConditionsComfort  
Time TempWeatherWind HumidityBarometerVisibility
7:50 PM
Sat, Feb 13
57 °FPassing clouds.3 mph82%29.65 "HgN/A
7:20 PM57 °FPassing clouds.5 mph77%29.65 "HgN/A
6:50 PM57 °FPassing clouds.6 mph77%29.65 "HgN/A
6:20 PM57 °FPassing clouds.5 mph77%29.65 "HgN/A
5:50 PM57 °FPassing clouds.5 mph72%29.65 "HgN/A
5:20 PM57 °FPassing clouds.7 mph72%29.65 "HgN/A
4:50 PM59 °FPassing clouds.8 mph68%29.62 "HgN/A
4:20 PM61 °FPassing clouds.12 mph63%29.62 "HgN/A
3:50 PM61 °FScattered clouds.9 mph63%29.62 "HgN/A
3:20 PM61 °FScattered clouds.14 mph59%29.62 "HgN/A
2:50 PM61 °FScattered clouds.13 mph68%29.62 "HgN/A
2:20 PM61 °FScattered clouds.15 mph63%29.62 "HgN/A
1:50 PM63 °FScattered clouds.15 mph59%29.62 "HgN/A
1:20 PM59 °FScattered clouds.16 mph72%29.62 "HgN/A
12:50 PM63 °FScattered clouds.16 mph64%29.62 "HgN/A
12:20 PM61 °FScattered clouds.17 mph68%29.62 "HgN/A
11:50 AM61 °FPartly sunny.16 mph72%29.62 "HgN/A
11:20 AM61 °FBroken clouds.14 mph72%29.62 "HgN/A
10:50 AM59 °FBroken clouds.13 mph77%29.59 "HgN/A
10:20 AM59 °FBroken clouds.10 mph82%29.59 "HgN/A
9:50 AM59 °FBroken clouds.15 mph77%29.56 "HgN/A
9:20 AM57 °FBroken clouds.12 mph88%29.56 "HgN/A
8:50 AM57 °FBroken clouds.6 mph82%29.56 "HgN/A
8:20 AM55 °FBroken clouds.2 mph88%29.56 "HgN/A
7:50 AM54 °FBroken clouds.3 mph94%29.56 "HgN/A
7:20 AM54 °FBroken clouds.5 mph88%29.53 "HgN/A
6:50 AM54 °FPartly cloudy.3 mph88%29.53 "HgN/A
6:20 AM54 °FLight rain. Partly cloudy.1 mph88%29.53 "Hg4 mi
5:50 AM54 °FRain. Partly cloudy.6 mph88%29.50 "Hg4 mi
5:20 AM54 °FRain. Partly cloudy.3 mph94%29.53 "Hg4 mi
4:50 AM54 °FThunderstorms. Partly cloudy.9 mph94%29.56 "Hg4 mi
4:20 AM54 °FThunderstorms. Partly cloudy.14 mph88%29.56 "Hg2 mi
3:50 AM57 °FHeavy rain. Partly cloudy.13 mph88%29.53 "Hg2 mi
3:20 AM57 °FRain. Partly cloudy.9 mph88%29.53 "Hg4 mi
2:50 AM57 °FRain. Partly cloudy.9 mph94%29.56 "Hg4 mi
2:20 AM57 °FRain. Partly cloudy.12 mph94%29.56 "Hg4 mi
1:50 AM57 °FPartly cloudy.10 mph94%29.56 "Hg4 mi
1:20 AM57 °FPartly cloudy.10 mph94%29.56 "Hg4 mi
12:50 AM57 °FPartly cloudy.14 mph94%29.59 "Hg4 mi
11:50 PM
Fri, Feb 12
55 °FRain. Partly cloudy.9 mph94%29.62 "Hg4 mi
11:20 PM55 °FRain. Partly cloudy.9 mph94%29.65 "Hg4 mi
10:50 PM55 °FRain. Passing clouds.8 mph88%29.65 "Hg5 mi
10:20 PM55 °FLight rain. Passing clouds.8 mph88%29.68 "HgN/A
9:50 PM57 °FPassing clouds.10 mph82%29.71 "HgN/A
9:20 PM57 °FPassing clouds.8 mph82%29.71 "HgN/A
Weather by CustomWeather, © 2016

See weather overviewHow to use our weather pages